User: anonymous   Login
Location: Unspecified
(0.0000°N, 0.0000°E)
Time: 18:34:35
(UTC+00:00)
Language:

GONETS D1M 1 - Orbit

View from above orbital plane
View from above orbital plane
View from above satellite
View from above satellite

Ground track
Ground track

The orbit data is extracted from the following two-line orbital elements,

1 28908U 05048A   21025.73681334  .00000007  00000-0 -21447-4 0  9999
2 28908  82.4698 126.3356 0007105 237.4760 278.0061 12.55506162691872
Epoch (UTC): 25 January 2021 17:41:00
Eccentricity: 0.0007105
inclination: 82.4698°
perigee height: 1436 km
apogee height: 1447 km
right ascension of ascending node: 126.3356°
argument of perigee: 237.4760°
revolutions per day: 12.55506162
mean anomaly at epoch: 278.0061°
orbit number at epoch: 69187

The dashed part of the orbit path shows where the satellite is in the earth's shadow,  

DLR